Regional Weather Roundup
Issued by NWS Cleveland, OH

Home | Current Version | Previous Version | Graphics & Text | Print | Product List | Glossary On
Versions: 1 2 3 4 5 6 7 8 9 10 11 12 13 14 15 16 17 18 19 20 21 22 23 24 25 26 27 28 29 30 31 32 33 34 35 36 37 38 39 40 41 42 43 44 45 46 47 48 49 50
000
ASUS41 KCLE 311602
RWRCLE
OHIO REGIONAL WEATHER ROUNDUP
NATIONAL WEATHER SERVICE CLEVELAND, OH
1200 PM EDT FRI OCT 31 2014

NOTE: "FAIR" INDICATES FEW OR NO CLOUDS BELOW 12,000 FEET WITH NO
SIGNIFICANT WEATHER AND/OR OBSTRUCTIONS TO VISIBILITY.

OHZ001>008-015>018-024>027-034-035-043-044-311700-
   NORTHWEST OHIO

CITY           SKY/WX    TMP DP  RH WIND       PRES   REMARKS
DEFIANCE       LGT RAIN  42  37  82 N14       29.92S
FINDLAY        LGT RAIN  44  41  89 W8        29.89F
TOLEDO EXPRESS LGT RAIN  41  38  89 N12       29.89S
TOLEDO EXEC    LGT RAIN  44  40  85 W7        29.89F FOG
LIMA           NOT AVBL
$$

OHZ009>014-019>023-028>033-038-089-311700-
   NORTHEAST OHIO

CITY           SKY/WX    TMP DP  RH WIND       PRES   REMARKS
CLE-HOPKINS    CLOUDY    47  35  63 S8        29.92F
CLE-LAKEFRONT  CLOUDY   N/A N/A N/A S7        29.90F
CUY CO. ARPT   CLOUDY    48  39  71 SW8       29.91F
LORAIN-ELYRIA  CLOUDY    46  36  68 SW6       29.90F
ASHTABULA      CLOUDY    47  37  68 SW9       29.91F
AKRON-CANTON   CLOUDY    47  36  65 SW12      29.90F
WOOSTER        CLOUDY    48  36  63 SW9       29.90F
MANSFIELD      CLOUDY    46  36  68 SW12      29.89F
YOUNGSTOWN     LGT RAIN  45  36  70 SW7       29.91F
$$

OHZ042-051>053-060>062-070>072-077>081-311700-
  SOUTHWEST OHIO

CITY           SKY/WX    TMP DP  RH WIND       PRES   REMARKS
CINC-COVINGTON LGT RAIN  47  40  76 W8        29.95S
CINC-LUNKEN    LGT RAIN  48  41  76 W6        29.96F
HAMILTON       LGT RAIN  46  43  89 W5        29.96S
DAYTON         LGT RAIN  45  40  82 W8        29.93F
WRIGHT-PAT AFB NOT AVBL
DAYTON GENERAL LGT RAIN  45  39  79 W3        29.92F
WILMINGTON     CLOUDY    47  38  71 W8        29.92F
$$

OHZ036-037-039>041-045>050-054>059-063>069-073>076-082>088-311700-
  CENTRAL AND SOUTHEAST OHIO

CITY           SKY/WX    TMP DP  RH WIND       PRES   REMARKS
COLUMBUS       CLOUDY    45  38  76 S8        29.92F
OSU AIRPORT    CLOUDY    47  39  74 SW6       29.91F
BOLTON FIELD   NOT AVBL
RICKENBACK AFB CLOUDY    45  40  83 S9        29.92F
NEWARK         CLOUDY    46  39  76 SW8       29.92F
MARION         CLOUDY    45  38  76 SW8       29.90F
LANCASTER      CLOUDY    47  40  76 SW7       29.93F
ZANESVILLE     CLOUDY    44  40  85 S8        29.93F
NEW PHILLY     LGT RAIN  45  39  79 S7        29.94F
$$



USA.gov is the U.S. government's official web portal to all federal, state and local government web resources and services.